Reno, NV

4:36 PM PDT on September 25, 2016 (GMT -0700)
Reno - Stead

Weather History for KRTS - July, 2013

Change the Weather History Date:

Saturday, July 13, 2013

  Actual Average (KRNO) Record (KRNO)
Temperature  
Mean Temperature 66 °F 75 °F  
Max Temperature 86 °F 92 °F 103 °F (2014)
Min Temperature 46 °F 58 °F 35 °F (1981)
Degree Days  
Heating Degree Days 0 0  
Month to date heating degree days 0  
Since 1 June heating degree days 56  
Since 1 July heating degree days 0  
Cooling Degree Days 1 10  
Month to date cooling degree days 117  
Year to date cooling degree days 290  
Since 1 June cooling degree days 253  
Growing Degree Days 16 (Base 50)    
Moisture  
Dew Point 21 °F    
Average Humidity 19    
Maximum Humidity 37    
Minimum Humidity 6    
Precipitation  
Precipitation 0.00 in 0.01 in 0.46 in (1911)
Month to date precipitation 0.07  
Year to date precipitation 4.35  
Snow  
Snow 0.00 in 0.00 in 0.00 in ()
Month to date snowfall 0.0  
Since 1 June snowfall T  
Since 1 July snowfall 0.0  
Snow Depth -    
Sea Level Pressure  
Sea Level Pressure 30.14 in    
Wind  
Wind Speed 9 mph (NW)    
Max Wind Speed 20 mph    
Max Gust Speed 25 mph    
Visibility 10 miles    
Events      
T = Trace of Precipitation, MM = Missing Value Source: NWS Daily Summary

Daily Weather History Graph

Daily Weather History Graph

Search for Another Location

Airport or City:

Trip Planner

Search our weather history database for the weather conditions in past years. The results will help you decide how hot, cold, wet, or windy it might be!

Date:

Astronomy

Jul. 13, 2013 Rise Set
Actual Time 5:43 AM PDT 8:27 PM PDT
Civil Twilight 5:11 AM PDT 8:58 PM PDT
Nautical Twilight 4:31 AM PDT 9:38 PM PDT
Astronomical Twilight 3:46 AM PDT 10:23 PM PDT
Moon 11:03 AM PDT (7/13) 11:11 PM PDT (7/13)
Length of Visible Light 15h 47m
Length of Day
14h 44m
Waxing Crescent, 26% of the Moon is Illuminated
Jul 13
Waxing Crescent
Jul 15
First Quarter
Jul 22
Full
Jul 29
Last Quarter
Aug 6
New

Hourly Weather History & Observations

Time (PDT) Temp. Windchill Dew Point Humidity Pressure Visibility Wind Dir Wind Speed Gust Speed Precip Events Conditions
12:15 AM 60.8 °F - 24.8 °F 25% 30.12 in 10.0 mi NW 12.7 mph - N/A   Clear
12:35 AM 60.8 °F - 24.8 °F 25% 30.12 in 10.0 mi NW 10.4 mph - N/A   Clear
12:55 AM 59.0 °F - 24.8 °F 27% 30.13 in 10.0 mi NNW 9.2 mph - N/A   Clear
1:15 AM 55.4 °F - 24.8 °F 31% 30.13 in 10.0 mi North 3.5 mph - N/A   Clear
1:35 AM 53.6 °F - 24.8 °F 33% 30.13 in 10.0 mi NNW 9.2 mph - N/A   Clear
1:55 AM 51.8 °F - 23.0 °F 33% 30.13 in 10.0 mi North 6.9 mph - N/A   Clear
2:15 AM 53.6 °F - 23.0 °F 30% 30.13 in 10.0 mi North 6.9 mph - N/A   Clear
2:35 AM 51.8 °F - 23.0 °F 33% 30.13 in 10.0 mi North 10.4 mph - N/A   Clear
2:55 AM 55.4 °F - 21.2 °F 26% 30.13 in 10.0 mi North 10.4 mph - N/A   Partly Cloudy
3:15 AM 53.6 °F - 21.2 °F 28% 30.13 in 10.0 mi North 9.2 mph - N/A   Scattered Clouds
3:35 AM 50.0 °F - 23.0 °F 35% 30.13 in 10.0 mi North 12.7 mph - N/A   Partly Cloudy
3:55 AM 53.6 °F - 23.0 °F 30% 30.12 in 10.0 mi NNW 12.7 mph - N/A   Clear
4:15 AM 51.8 °F - 23.0 °F 33% 30.13 in 10.0 mi North 6.9 mph - N/A   Clear
4:35 AM 50.0 °F - 23.0 °F 35% 30.12 in 10.0 mi North 8.1 mph - N/A   Clear
4:55 AM 50.0 °F - 21.2 °F 32% 30.13 in 10.0 mi Calm Calm - N/A   Clear
5:15 AM 48.2 °F - 21.2 °F 34% 30.13 in 10.0 mi NNW 6.9 mph - N/A   Clear
5:35 AM 46.4 °F 43.5 °F 21.2 °F 37% 30.14 in 10.0 mi NW 5.8 mph - N/A   Clear
5:55 AM 48.2 °F - 21.2 °F 34% 30.14 in 10.0 mi NNW 6.9 mph - N/A   Clear
6:15 AM 48.2 °F - 23.0 °F 37% 30.15 in 10.0 mi North 5.8 mph - N/A   Clear
6:35 AM 50.0 °F - 24.8 °F 37% 30.15 in 10.0 mi North 3.5 mph - N/A   Clear
6:55 AM 55.4 °F - 24.8 °F 31% 30.16 in 10.0 mi NNW 3.5 mph - N/A   Clear
7:15 AM 59.0 °F - 23.0 °F 25% 30.16 in 10.0 mi Calm Calm - N/A   Clear
7:35 AM 59.0 °F - 24.8 °F 27% 30.16 in 10.0 mi Calm Calm - N/A   Clear
7:55 AM 60.8 °F - 24.8 °F 25% 30.17 in 10.0 mi SW 3.5 mph - N/A   Clear
8:15 AM 62.6 °F - 24.8 °F 24% 30.17 in 10.0 mi Calm Calm - N/A   Clear
8:35 AM 64.4 °F - 24.8 °F 22% 30.17 in 10.0 mi Calm Calm - N/A   Clear
8:55 AM 66.2 °F - 23.0 °F 19% 30.17 in 10.0 mi Calm Calm - N/A   Clear
9:15 AM 68.0 °F - 21.2 °F 17% 30.17 in 10.0 mi Calm Calm - N/A   Clear
9:35 AM 71.6 °F - 17.6 °F 13% 30.17 in 10.0 mi SE 3.5 mph - N/A   Clear
9:55 AM 71.6 °F - 14.0 °F 11% 30.16 in 10.0 mi ESE 4.6 mph - N/A   Clear
10:15 AM 73.4 °F - 17.6 °F 12% 30.16 in 10.0 mi ESE 4.6 mph - N/A   Clear
10:35 AM 75.2 °F - 21.2 °F 13% 30.16 in 10.0 mi East 6.9 mph - N/A   Clear
10:55 AM 75.2 °F - 19.4 °F 12% 30.16 in 10.0 mi East 5.8 mph - N/A   Clear
11:15 AM 77.0 °F - 19.4 °F 12% 30.16 in 10.0 mi ENE 3.5 mph - N/A   Clear
11:35 AM 77.0 °F - 17.6 °F 11% 30.15 in 10.0 mi ENE 4.6 mph - N/A   Clear
11:55 AM 78.8 °F - 14.0 °F 9% 30.15 in 10.0 mi North 8.1 mph - N/A   Clear
12:15 PM 80.6 °F - 15.8 °F 9% 30.15 in 10.0 mi East 5.8 mph - N/A   Clear
12:35 PM 82.4 °F - 12.2 °F 7% 30.14 in 10.0 mi WSW 8.1 mph - N/A   Clear
12:55 PM 80.6 °F - 12.2 °F 8% 30.14 in 10.0 mi SW 6.9 mph - N/A   Clear
1:15 PM 82.4 °F - 8.6 °F 6% 30.14 in 10.0 mi WSW 3.5 mph - N/A   Clear
1:35 PM 82.4 °F - 12.2 °F 7% 30.13 in 10.0 mi West 5.8 mph - N/A   Clear
1:55 PM 84.2 °F - 12.2 °F 7% 30.13 in 10.0 mi West 9.2 mph - N/A   Clear
2:15 PM 84.2 °F - 12.2 °F 7% 30.13 in 10.0 mi West 3.5 mph - N/A   Clear
2:35 PM 86.0 °F - 14.0 °F 7% 30.12 in 10.0 mi WSW 11.5 mph 19.6 mph N/A   Clear
2:55 PM 84.2 °F - 12.2 °F 7% 30.12 in 10.0 mi SSW 9.2 mph 19.6 mph N/A   Clear
3:15 PM 86.0 °F - 14.0 °F 7% 30.11 in 10.0 mi SW 15.0 mph 20.7 mph N/A   Clear
3:35 PM 86.0 °F - 10.4 °F 6% 30.11 in 10.0 mi West 10.4 mph 20.7 mph N/A   Clear
3:55 PM 86.0 °F - 17.6 °F 8% 30.10 in 10.0 mi West 11.5 mph 19.6 mph N/A   Clear
4:15 PM 86.0 °F - 19.4 °F 9% 30.10 in 10.0 mi NNW 10.4 mph 19.6 mph N/A   Clear
4:35 PM 86.0 °F - 14.0 °F 7% 30.10 in 10.0 mi NW 5.8 mph 16.1 mph N/A   Clear
4:55 PM 84.2 °F - 17.6 °F 8% 30.09 in 10.0 mi WSW 13.8 mph 18.4 mph N/A   Clear
5:15 PM 86.0 °F - 19.4 °F 9% 30.09 in 10.0 mi West 12.7 mph 20.7 mph N/A   Clear
5:35 PM 84.2 °F - 21.2 °F 10% 30.09 in 10.0 mi WNW 11.5 mph 21.9 mph N/A   Clear
5:55 PM 84.2 °F - 23.0 °F 11% 30.09 in 10.0 mi WNW 15.0 mph 24.2 mph N/A   Clear
6:15 PM 84.2 °F - 23.0 °F 11% 30.09 in 10.0 mi NW 18.4 mph 23.0 mph N/A   Clear
6:35 PM 82.4 °F - 24.8 °F 12% 30.10 in 10.0 mi WNW 16.1 mph - N/A   Clear
6:55 PM 80.6 °F - 24.8 °F 13% 30.10 in 10.0 mi NW 17.3 mph 25.3 mph N/A   Clear
7:15 PM 80.6 °F - 26.6 °F 14% 30.11 in 10.0 mi NW 19.6 mph 24.2 mph N/A   Clear
7:35 PM 78.8 °F - 26.6 °F 15% 30.12 in 10.0 mi WNW 18.4 mph 24.2 mph N/A   Clear
7:55 PM 77.0 °F - 26.6 °F 16% 30.12 in 10.0 mi WNW 15.0 mph - N/A   Clear
8:15 PM 75.2 °F - 28.4 °F 18% 30.13 in 10.0 mi WNW 13.8 mph 24.2 mph N/A   Clear
8:35 PM 73.4 °F - 28.4 °F 19% 30.13 in 10.0 mi NW 15.0 mph 20.7 mph N/A   Clear
8:55 PM 71.6 °F - 28.4 °F 20% 30.14 in 10.0 mi NW 11.5 mph 17.3 mph N/A   Clear
9:15 PM 71.6 °F - 28.4 °F 20% 30.15 in 10.0 mi WNW 15.0 mph - N/A   Clear
9:35 PM 71.6 °F - 28.4 °F 20% 30.16 in 10.0 mi NW 10.4 mph - N/A   Clear
9:55 PM 69.8 °F - 26.6 °F 20% 30.16 in 10.0 mi NW 15.0 mph - N/A   Clear
10:15 PM 69.8 °F - 26.6 °F 20% 30.17 in 10.0 mi WNW 12.7 mph - N/A   Clear
10:35 PM 69.8 °F - 24.8 °F 18% 30.17 in 10.0 mi WNW 12.7 mph - N/A   Clear
10:55 PM 68.0 °F - 24.8 °F 20% 30.17 in 10.0 mi WNW 12.7 mph - N/A   Clear
11:15 PM 68.0 °F - 23.0 °F 18% 30.18 in 10.0 mi WNW 6.9 mph - N/A   Clear
11:35 PM 68.0 °F - 23.0 °F 18% 30.19 in 10.0 mi NNW 3.5 mph - N/A   Clear
11:55 PM 66.2 °F - 23.0 °F 19% 30.19 in 10.0 mi WNW 8.1 mph - N/A   Clear